Weather History for Pullman, WA

Change the Weather History Date:

Monday, January 20, 2014

  Actual Average Record
Temperature  
Mean Temperature 29 °F 32 °F  
Max Temperature 32 °F 37 °F 50 °F (1994)
Min Temperature 25 °F 27 °F -19 °F (1954)
Degree Days  
Heating Degree Days 36 33  
Month to date heating degree days 591 679  
Since 1 July heating degree days 3445 3503  
Cooling Degree Days 0 0  
Month to date cooling degree days 0 0  
Year to date cooling degree days 0 0  
Moisture  
Dew Point 27 °F    
Average Humidity 89    
Maximum Humidity 92    
Minimum Humidity 85    
Precipitation  
Precipitation 0.00 in 0.07 in 1.23 in (1972)
Month to date precipitation 0.92 1.05  
Year to date precipitation 0.92 1.05  
Sea Level Pressure  
Sea Level Pressure 30.49 in    
Wind  
Wind Speed 2 mph (WNW)    
Max Wind Speed 7 mph    
Max Gust Speed 9 mph    
Visibility 2 miles    
Events Fog    
T = Trace of Precipitation, MM = Missing Value Source: NWS Daily Summary

Daily Weather History Graph

Daily Weather History Graph

Search for Another Location

Airport:

Trip Planner

Search our weather history database for the weather conditions in past years. The results will help you decide how hot, cold, wet, or windy it might be!

Date:

Astronomy

Jan. 20, 2014 Rise Set
Actual Time 7:25 AM PST 4:34 PM PST
Civil Twilight 6:51 AM PST 5:07 PM PST
Nautical Twilight 6:14 AM PST 5:45 PM PST
Astronomical Twilight 5:38 AM PST 6:21 PM PST
Moon 9:33 PM PST (1/20) 9:08 AM PST (1/20)
Length of Visible Light 10h 16m
Length of Day
9h 09m
Waning Gibbous, 82% of the Moon is Illuminated
Jan 20
Waning Gibbous
Jan 23
Last Quarter
Jan 30
New
Feb 6
First Quarter
Feb 14
Full

Hourly Weather History & Observations

Time (PST) Temp. Windchill Dew Point Humidity Pressure Visibility Wind Dir Wind Speed Gust Speed Precip Events Conditions
12:53 AM 27.0 °F 23.0 °F 25.0 °F 92% 30.45 in 0.2 mi WNW 3.5 mph - N/A Fog Light Freezing Fog
1:53 AM 26.1 °F - 24.1 °F 92% 30.47 in 0.2 mi Calm Calm - N/A Fog Light Freezing Fog
2:53 AM 27.0 °F - 25.0 °F 92% 30.48 in 0.2 mi Calm Calm - N/A Fog Light Freezing Fog
3:53 AM 27.0 °F - 25.0 °F 92% 30.50 in 0.2 mi Calm Calm - N/A Fog Light Freezing Fog
4:53 AM 27.0 °F - 25.0 °F 92% 30.51 in 0.5 mi Calm Calm - N/A Fog Light Freezing Fog
5:53 AM 26.1 °F 21.9 °F 25.0 °F 96% 30.52 in 0.2 mi Variable 3.5 mph - N/A Fog Light Freezing Fog
6:53 AM 27.0 °F 21.6 °F 24.1 °F 89% 30.53 in 0.2 mi ENE 4.6 mph - N/A Fog Light Freezing Fog
7:53 AM 26.1 °F 19.4 °F 24.1 °F 92% 30.53 in 0.2 mi East 5.8 mph - N/A Fog Light Freezing Fog
8:53 AM 26.1 °F 19.4 °F 25.0 °F 96% 30.54 in 1.0 mi SSE 5.8 mph - N/A   Overcast
9:00 AM 27.0 °F 20.5 °F 25.0 °F 92% 30.44 in 3.0 mi SE 5.8 mph - N/A   Overcast
9:17 AM 27.0 °F 21.6 °F 25.0 °F 92% 30.45 in 1.8 mi South 4.6 mph - N/A   Overcast
9:29 AM 27.0 °F 23.0 °F 26.1 °F 96% 30.46 in 3.0 mi South 3.5 mph - N/A   Overcast
9:53 AM 28.9 °F 25.2 °F 26.1 °F 89% 30.56 in 5.0 mi SW 3.5 mph - N/A   Mostly Cloudy
10:15 AM 30.0 °F - 27.0 °F 88% 30.47 in 8.0 mi Calm Calm - N/A   Partly Cloudy
10:42 AM 32.0 °F - 28.9 °F 88% 30.47 in 10.0 mi Calm Calm - N/A   Mostly Cloudy
10:53 AM 32.0 °F - 28.9 °F 88% 30.56 in 9.0 mi Calm Calm - N/A   Overcast
11:15 AM 30.9 °F 26.2 °F 28.0 °F 89% 30.47 in 8.0 mi WNW 4.6 mph - N/A   Overcast
11:53 AM 30.9 °F 25.2 °F 28.9 °F 92% 30.54 in 6.0 mi NW 5.8 mph - N/A   Overcast
12:53 PM 30.9 °F 27.5 °F 28.9 °F 92% 30.53 in 5.0 mi NW 3.5 mph - N/A   Overcast
1:53 PM 30.0 °F 25.2 °F 28.9 °F 96% 30.53 in 4.0 mi WNW 4.6 mph - N/A   Overcast
2:10 PM 30.0 °F 25.2 °F 28.0 °F 92% 30.43 in 2.0 mi NW 4.6 mph - N/A   Overcast
2:22 PM 30.0 °F 25.2 °F 28.9 °F 96% 30.43 in 1.8 mi NW 4.6 mph - N/A   Overcast
2:45 PM 30.0 °F 24.1 °F 28.9 °F 96% 30.43 in 0.8 mi NW 5.8 mph - N/A   Overcast
2:53 PM 30.0 °F 26.5 °F 28.9 °F 96% 30.51 in 0.5 mi NNW 3.5 mph - N/A Fog Light Freezing Fog
3:15 PM 30.0 °F 25.2 °F 28.0 °F 92% 30.42 in 1.8 mi NE 4.6 mph - N/A   Overcast
3:53 PM 30.0 °F - 28.9 °F 96% 30.50 in 1.5 mi Calm Calm - N/A   Overcast
4:14 PM 30.0 °F - 28.9 °F 96% 30.41 in 0.5 mi Calm Calm - N/A Fog Light Freezing Fog
4:53 PM 30.0 °F 26.5 °F 28.9 °F 96% 30.51 in 0.5 mi West 3.5 mph - N/A Fog Light Freezing Fog
5:53 PM 30.0 °F 25.2 °F 28.0 °F 92% 30.53 in 0.2 mi NNW 4.6 mph - N/A Fog Light Freezing Fog
6:53 PM 30.0 °F - 28.0 °F 92% 30.52 in 0.2 mi Calm Calm - N/A Fog Light Freezing Fog
7:53 PM 30.0 °F - 28.0 °F 92% 30.52 in 0.2 mi Calm Calm - N/A Fog Light Freezing Fog
8:53 PM 30.0 °F 26.5 °F 28.0 °F 92% 30.52 in 0.2 mi ESE 3.5 mph - N/A Fog Light Freezing Fog
9:53 PM 30.0 °F - 28.0 °F 92% 30.51 in 0.2 mi Calm Calm - N/A Fog Light Freezing Fog
10:53 PM 28.9 °F 25.2 °F 27.0 °F 92% 30.51 in 0.2 mi SW 3.5 mph - N/A Fog Light Freezing Fog
11:53 PM 28.9 °F - 27.0 °F 92% 30.51 in 0.2 mi Calm Calm - N/A Fog Light Freezing Fog